User: anonymous   Login
Location: Unspecified
(0.0000°N, 0.0000°E)
Time: 01:09:55
(UTC+00:00)
Language:

STARLINK-3602 - Orbit

View from above orbital plane
View from above orbital plane
View from above satellite
View from above satellite

Ground track
Ground track

The orbit is defined by the following mean orbital elements,

1 51791U          26145.02784682 +.00000000 +00000-0 +10543-4 0 00008
2 51791  53.2135   6.4255 0001568  96.4997 263.6174 15.08843307    08
Epoch (UTC): 25 May 2026 00:40:05
Eccentricity: 0.0001568
inclination: 53.2135°
perigee height: 539 km
apogee height: 541 km
right ascension of ascending node: 6.4255°
argument of perigee: 96.4997°
revolutions per day: 15.08843307
mean anomaly at epoch: 263.6174°

The dashed part of the orbit path shows where the satellite is in the earth's shadow,  

DLR